Weather History for KTVL - August, 2014

Change the Weather History Date:

Monday, August 25, 2014

  Actual Average Record
Temperature  
Mean Temperature 59 °F 59 °F  
Max Temperature 74 °F 79 °F 91 °F (1988)
Min Temperature 44 °F 39 °F 27 °F (1978)
Degree Days  
Heating Degree Days 6 6  
Month to date heating degree days 73 118  
Since 1 June heating degree days 297 566  
Since 1 July heating degree days 87 256  
Cooling Degree Days 0 0  
Month to date cooling degree days 8 7  
Year to date cooling degree days 95 26  
Since 1 June cooling degree days 95 26  
Growing Degree Days 8 (Base 50)    
Moisture  
Dew Point 41 °F    
Average Humidity 56    
Maximum Humidity 86    
Minimum Humidity 25    
Precipitation  
Precipitation 0.71 in - 0.71 in (2014)
Month to date precipitation 1.69  
Year to date precipitation 14.59  
Sea Level Pressure  
Sea Level Pressure 30.01 in    
Wind  
Wind Speed 4 mph (SSE)    
Max Wind Speed 17 mph    
Max Gust Speed 24 mph    
Visibility 6 miles    
Events Fog , Rain , Thunderstorm    
T = Trace of Precipitation, MM = Missing Value Source: NWS Daily Summary

Daily Weather History Graph

Daily Weather History Graph

Search for Another Location

Airport or City:

Trip Planner

Search our weather history database for the weather conditions in past years. The results will help you decide how hot, cold, wet, or windy it might be!

Date:

Astronomy

Aug. 25, 2014 Rise Set
Actual Time 6:22 AM PDT 7:40 PM PDT
Civil Twilight 5:54 AM PDT 8:08 PM PDT
Nautical Twilight 5:21 AM PDT 8:41 PM PDT
Astronomical Twilight 4:46 AM PDT 9:16 PM PDT
Moon 6:32 AM PDT (8/25) 7:34 PM PDT (8/25)
Length of Visible Light 14h 13m
Length of Day
13h 17m
New Moon, 0% of the Moon is Illuminated
Aug 25
New Moon
Sep 2
First Quarter
Sep 8
Full
Sep 15
Last Quarter
Sep 23
New

Hourly Weather History & Observations

Time (PDT) Temp. Windchill Dew Point Humidity Pressure Visibility Wind Dir Wind Speed Gust Speed Precip Events Conditions
12:53 AM 48.9 °F - 39.0 °F 69% 29.89 in 10.0 mi South 3.5 mph - N/A   Clear
2:53 AM 46.0 °F - 35.1 °F 66% 29.88 in 10.0 mi Calm Calm - N/A   Clear
3:53 AM 45.0 °F - 35.1 °F 68% 29.87 in 10.0 mi Calm Calm - N/A   Clear
5:53 AM 46.9 °F - 35.1 °F 63% 29.86 in 10.0 mi Calm Calm - N/A   Clear
7:53 AM 50.0 °F - 39.0 °F 66% 29.92 in 10.0 mi Calm Calm - N/A   Clear
8:53 AM 63.0 °F - 34.0 °F 34% 29.89 in 10.0 mi South 16.1 mph 23.0 mph N/A   Clear
9:53 AM 66.0 °F - 34.0 °F 30% 29.90 in 10.0 mi South 12.7 mph 23.0 mph N/A   Clear
10:53 AM 66.9 °F - 30.0 °F 25% 29.89 in 10.0 mi SSW 9.2 mph - N/A   Scattered Clouds
11:53 AM 71.1 °F - 33.1 °F 25% 29.89 in 10.0 mi Variable 3.5 mph - N/A   Clear
12:53 PM 72.0 °F - 34.0 °F 25% 29.88 in 10.0 mi Variable 5.8 mph - N/A   Mostly Cloudy
1:53 PM 71.1 °F - 35.1 °F 27% 29.88 in 10.0 mi Calm Calm - N/A   Partly Cloudy
2:53 PM 71.1 °F - 36.0 °F 28% 29.88 in 10.0 mi North - - N/A   Clear
3:53 PM 71.1 °F - 37.9 °F 30% 29.88 in 10.0 mi NE 10.4 mph - N/A   Overcast
4:53 PM 69.1 °F - 39.9 °F 35% 29.89 in 10.0 mi South 9.2 mph - N/A   Overcast
5:16 PM 61.0 °F - 45.0 °F 56% 30.06 in 4.0 mi SE 12.7 mph - 0.03 in Rain , Thunderstorm Thunderstorms and Rain
5:25 PM 57.9 °F - 44.1 °F 60% 30.06 in 4.0 mi East 10.4 mph - 0.10 in Rain , Thunderstorm Heavy Thunderstorms and Rain
5:35 PM 57.0 °F - 44.1 °F 62% 30.07 in 9.0 mi East 8.1 mph - 0.11 in Rain , Thunderstorm Light Thunderstorms and Rain
5:53 PM 54.0 °F - 44.1 °F 69% 29.99 in 7.0 mi NNE 6.9 mph - 0.13 in Rain Light Rain
5:55 PM 53.1 °F - 45.0 °F 74% 30.10 in 3.0 mi Variable 4.6 mph - 0.05 in Rain , Thunderstorm Thunderstorms and Rain
5:57 PM 52.0 °F - 45.0 °F 77% 30.10 in 1.5 mi NNW 4.6 mph - 0.13 in Rain , Thunderstorm Heavy Thunderstorms and Rain
6:05 PM 48.0 °F - 43.0 °F 83% 30.11 in 0.8 mi Calm Calm - 0.28 in Rain , Thunderstorm Thunderstorms and Rain
6:09 PM 48.0 °F - 44.1 °F 86% 30.11 in 1.2 mi Variable 3.5 mph - 0.33 in Rain , Thunderstorm Rain
6:28 PM 48.9 °F - 45.0 °F 86% 30.12 in 1.8 mi Calm Calm - 0.51 in Rain , Thunderstorm Thunderstorms and Rain
6:37 PM 48.0 °F - 44.1 °F 86% 30.13 in 2.5 mi WNW 3.5 mph - 0.54 in Rain Rain
6:45 PM 48.9 °F - 45.0 °F 86% 30.13 in 4.0 mi Calm Calm - 0.55 in Rain Rain
7:04 PM 50.0 °F - 46.0 °F 86% 30.12 in 5.0 mi SSW 3.5 mph - 0.01 in Rain Rain
8:53 PM 50.0 °F - 46.0 °F 86% 30.01 in 10.0 mi Calm Calm - N/A   Mostly Cloudy
9:53 PM 48.9 °F - 45.0 °F 86% 30.02 in 10.0 mi Calm Calm - N/A   Clear
10:42 PM 48.0 °F - 44.1 °F 86% 30.17 in 4.0 mi South 3.5 mph - N/A   Mostly Cloudy
10:44 PM 48.0 °F - 44.1 °F 86% 30.17 in 1.5 mi SSE 4.6 mph - N/A   Mostly Cloudy
10:53 PM 48.0 °F - 44.1 °F 86% 30.03 in 0.8 mi South 3.5 mph - N/A   Mist
11:10 PM 46.9 °F - 44.1 °F 90% 30.17 in 1.0 mi Calm Calm - N/A   Mist
11:28 PM 46.9 °F - 43.0 °F 86% 30.18 in 0.5 mi South 4.6 mph - N/A Fog Fog
11:53 PM 46.0 °F 43.1 °F 43.0 °F 89% 30.03 in 0.2 mi South 5.8 mph - N/A Fog Fog